Regional Weather Roundup
Issued by NWS Columbia, SC

Home | Current Version | Previous Version | Text Only | Print | Product List | Glossary On
Versions: 1 2 3 4 5 6 7 8 9 10 11 12 13 14 15 16 17 18 19 20 21 22 23 24 25 26 27 28 29 30 31 32 33 34 35 36 37 38 39 40 41 42 43 44 45 46 47 48 49 50
000
ASUS42 KCAE 061910
RWRCAE
REGIONAL WEATHER ROUNDUP
NATIONAL WEATHER SERVICE COLUMBIA SC
200 PM EST SAT FEB 06 2016

NOTE: "FAIR" INDICATES FEW OR NO CLOUDS BELOW 12,000 FEET WITH NO
SIGNIFICANT WEATHER AND/OR OBSTRUCTIONS TO VISIBILITY.

NOT ALL STATIONS ARE QUALITY CONTROLLED BY THE NATIONAL
WEATHER SERVICE. USE DATA WITH CAUTION...ESPECIALLY
DEWPOINT OBSERVATIONS.

SCZ001>056-GAZ040-063>065-077-062000-
...UPSTATE SOUTH CAROLINA...

CITY           SKY/WX    TMP DP  RH WIND       PRES   REMARKS
ANDERSON       SUNNY     49  15  25 VRB3      30.30F
LIBERTY        CLEAR     49  15  26 E6        30.28F
SPARTANBURG    MOSUNNY   45  12  26 N3        30.30F
CLEMSON        SUNNY     50  17  27 E6        30.30F
GREENVILLE     MOSUNNY   48  15  26 VRB5      30.30F
GREENWOOD      LGT RAIN  50  17  27 VRB5      30.30F
GREER          SUNNY     48  17  29 NW3       30.29F
ROCK HILL      SUNNY     49  17  28 VRB3      30.32F
CHESTER        CLEAR     46  18  31 CALM      30.32F
LAURENS        CLEAR     50  21  32 NE7       30.30F


...CENTRAL SOUTH CAROLINA...

CITY           SKY/WX    TMP DP  RH WIND       PRES   REMARKS
COLUMBIA APT   CLOUDY    51  20  29 E7        30.29F
COLUMBIA OWENS PTSUNNY   51  20  29 VRB6      30.30F
MCENTIRE ANGB  PTSUNNY   50  20  31 N6        30.29F
ORANGEBURG     LGT RAIN  48  26  42 NE9       30.27F
SUMTER SHAW    PTSUNNY   49  24  36 NE14      30.27F
NEWBERRY       CLEAR     50  21  32 N10G16    30.31F
AIKEN          MOCLDY    48  21  34 NE8       30.31F
BARNWELL       CLOUDY    50  28  43 N16       30.28F
CAMDEN         FAIR      52  52 100 N9        30.30F
LANCASTER      CLEAR     48  16  27 N5        30.31F
WINNSBORO      CLEAR     52  23  32 N8        30.29F


...EASTERN AND COASTAL SOUTH CAROLINA...

CITY           SKY/WX    TMP DP  RH WIND       PRES   REMARKS
MYRTLE BEACH   PTSUNNY   50  27  40 NE13      30.30
N MYRTLE BCH   LGT RAIN  49  28  44 NE9       30.28F
CONWAY         CLOUDY    48  28  46 N8        30.30F
MARION         FAIR      50  25  37 N9        30.30F
HARTSVILLE     FAIR      52  23  32 NE8       30.29F
FLORENCE       PTSUNNY   49  24  37 NE8       30.30F
DARLINGTON     SUNNY     52  25  35 N9G16     30.32F
CHARLESTON APT CLOUDY    54  30  40 NE10      30.26F
MOUNT PLEASANT MOCLDY    52  36  54 CALM      30.26F
WALTERBORO     CLOUDY    54  28  37 N9        30.27F
BEAUFORT       CLOUDY    54  29  38 N8        30.25F


...EASTERN GEORGIA...

CITY           SKY/WX    TMP DP  RH WIND       PRES   REMARKS
AUGUSTA BUSH F CLOUDY    50  24  36 E12       30.27F
AUGUSTA DANIEL PTSUNNY   54  22  28 NE10      30.26F
THOMSON        MOSUNNY   53  27  36 NE9       30.31F
WASHINGTON     FAIR      55  30  38 CALM      30.28F
CLAXTON        CLOUDY    51  35  54 NE12      30.26F
SYLVANIA       RAIN      47  37  67 CALM      30.29F
STATESBORO     LGT RAIN  49  34  55 NE5       30.27F
SAVANNAH       LGT RAIN  49  36  61 NE8       30.26F


...SOUTHERN NORTH CAROLINA...

CITY           SKY/WX    TMP DP  RH WIND       PRES   REMARKS
CHARLOTTE      MOSUNNY   49  15  25 NW6       30.32F
MONROE         SUNNY     47  18  31 CALM      30.31F
WADESBORO      CLEAR     49  15  25 NE8       30.32F
ROCKINGHAM     CLEAR     49  20  31 NW3       30.32F
RUTHERFORDTON  MOSUNNY   47  14  27 CALM      30.30F
ASHEVILLE      SUNNY     43  11  27 NW10      30.27F

$$



USA.gov is the U.S. government's official web portal to all federal, state and local government web resources and services.